Find Starlink 6328

NORAD ID: 56523 Int'l Des: 2023-065 Owner: SPXS Country: US Constellation: starlink operational
LEOCIRCULAR

当前视图

正在加载3D地球...

About Starlink 6328

Starlink 6328 (NORAD 56523) is a starlink constellation satellite (v1.5) launched May 14, 2023 by SPXS of US. It operates in LEO, CIRCULAR orbit with a mass of 305.00 kg.

关于 Starlink 6328

正在加载描述...

即将过境

Passes for default location (London). Set your location on the main map for personalized predictions.

高度历史

Loading altitude history...

两行轨道根数

1 56523U 23065W 26173.75789564 -.00001377 00000-0 -40514-4 0 9995
2 56523 43.0035 339.5235 0000820 270.6251 89.4507 15.27583888172661
Epoch: Jun 22, 2026 • Age: 12 hours

当前状态

高度 484.5 km
速度 7.62 km/s
星下点 -9.93°S, 45.83°W
发射日期 May 14, 2023
运行时间 3.1 years
类型 internet

技术详情

分类 Payload
质量 305.00 kg
干质量 290.00 kg
总质量 305.00 kg
长度 0.20 m
直径 2.80 m
跨度 9.00 m
形状 Box + pan
制造商 SPXS
平台类型 Starlink
阶段状态 In Orbit
所有者/国家 SPXS/US

Most Searched